Погода в Сепе

Россия / Удмуртская Республика     57°31′27″N   53°18′48″E
темп.,
°C
ветер,
м/с
пор.,
м/с
влажн.,
%
обл.,
%
осадки,
мм/ч
давл.,
гПа
погр.,
м
20 апреля, вт
вт2001:00−2в25610 0.0 103593
04:00−2в22590 0.0 103625
07:00+1в22495 0.0 1036150
10:00+5вюв22315 0.0 10351035
13:00+7юв22290 0.0 10341334
16:00+8ююв11295 0.0 10331286
19:00+5юв224510 0.0 103212
22:00+2юв11505 0.0 103310
21 апреля, ср
ср2101:00+1юв22545 0.0 103221
04:000юв22570 0.0 103228
07:00+3юв37515 0.0 1032218
10:00+8ююв5836100 0.0 1031919
13:00+10ююв693351 0.0 10291193
16:00+11ююв61036100 0.0 10271308
19:00+8ююв61243100 0.0 1026804
22:00+7ююв61448100 0.0 1026808
22 апреля, чт
чт2201:00+6ю61354100 0.0 10251021
04:00+3ю61489100 0.1 10261007
07:00+3ю61396100 0.2 1026759
10:00+3ю61296100 0.4 1026639
13:00+4ю51196100 0.1 1027597
16:00+3ююв51196100 0.4 1027590
19:00+3ююв51197100 0.4 1028541
22:00+3ю41097100 0.4 1028496
23 апреля, пт
пт2301:00+3ююв4898100 0.0 1027403
04:00+3ююв4898100 0.0 1027347
07:00+3ю3897100 0.0 1027365
10:00+4ю3795100 0.4 1027449
13:00+4ю2695100 2.6 1028414
16:00+6ю2488100 2.6 1027446
19:00+6юв239194 0.0 102891
22:00+5юв2395100 0.0 102769
24 апреля, сб
сб2401:00+4в2295100 0.0 102656
04:00+4в3793100 0.0 1025249
07:00+4всв3989100 0.0 1024364
10:00+7всв5875100 0.0 1021706
13:00+8всв5774100 0.0 1019972
16:00+7в4791100 0.6 1018875
19:00+6в3797100 1.2 1016437
22:00+6вюв3898100 2.1 1014530